Regional Weather Roundup
Issued by NWS

Home | Current Version | Previous Version | Graphics & Text | Print | Product List | Glossary On
Versions: 1 2 3 4 5 6 7 8 9 10 11 12 13 14 15 16 17 18 19 20 21 22 23 24 25 26 27 28 29 30 31 32 33 34 35 36 37 38 39 40 41 42 43 44 45 46 47 48 49 50
000
ASUS45 KPSR 180000
RWRAZ

PRELIMINARY ARIZONA REGIONAL HOURLY WEATHER ROUNDUP
NATIONAL WEATHER SERVICE PHOENIX AZ
500 PM MST THU APR 17 2014

NOTE: FAIR INDICATES FEW OR NO CLOUDS BELOW 12,000 FEET WITH NO
SIGNIFICANT WEATHER AND/OR OBSTRUCTIONS TO VISIBILITY.

AZZ001>003-036-180100-
NORTHWEST ARIZONA

CITY           SKY/WX    TMP DP  RH WIND       PRES   REMARKS
KINGMAN        SUNNY     81  13   7 SW25      29.90S
6HR MIN TEMP:  78; 6HR MAX TEMP:  85;

$$

AZZ004>008-015-016-018-180100-
NORTH CENTRAL ARIZONA

CITY           SKY/WX    TMP DP  RH WIND       PRES   REMARKS
GRAND CANYON   MOSUNNY   71  17  12 SW7       30.07S
6HR MIN TEMP:  64; 6HR MAX TEMP:  73;

PRESCOTT       SUNNY     76  17  11 SW18G24   30.00S
6HR MIN TEMP:  71; 6HR MAX TEMP:  78;

FLAGSTAFF      SUNNY     67  18  15 S14G22    30.10S
6HR MIN TEMP:  62; 6HR MAX TEMP:  69;

PAGE           SUNNY     79  26  14 NE10      29.92F
6HR MIN TEMP:  64; 6HR MAX TEMP:  80;

$$

AZZ009>014-017-180100-
NORTHEAST ARIZONA

CITY           SKY/WX    TMP DP  RH WIND       PRES   REMARKS
WINSLOW        NOT AVBL
SAINT JOHNS    SUNNY     73  19  13 VRB3      30.04F
6HR MIN TEMP:  67; 6HR MAX TEMP:  74;

WINDOW ROCK    SUNNY     70  16  12 MISG      30.10S
$$

AZZ023-180100-
GREATER PHOENIX AREA

CITY           SKY/WX    TMP DP  RH WIND       PRES   REMARKS
PHOENIX        PTSUNNY   93  20   7 S3        29.78F
6HR MIN TEMP:  83; 6HR MAX TEMP:  94;

GLENDALE       PTSUNNY   91  19   7 VRB3      29.81F
LUKE AFB       NOT AVBL
6HR MIN TEMP:  82; 6HR MAX TEMP:  91;

DEER VALLEY    SUNNY     88  16   7 W7        29.81F
6HR MIN TEMP:  81; 6HR MAX TEMP:  89;

SCOTTSDALE     SUNNY     89  20   8 CALM      29.83F
6HR MIN TEMP:  81; 6HR MAX TEMP:  90;

MESA-FALCON    SUNNY     90  18   7 SW6       29.82F
MESA-GATEWAY   PTSUNNY   90  21   8 CALM      29.84F
CHANDLER       PTSUNNY   90  23   9 VRB3      29.81F
$$

AZZ027-028-180100-
SOUTHWEST MARICOPA COUNTY AND PINAL COUNTY

CITY           SKY/WX    TMP DP  RH WIND       PRES   REMARKS
CASA GRANDE    SUNNY     90  16   6 CALM      29.82F
6HR MIN TEMP:  81; 6HR MAX TEMP:  91;

GILA BEND      MOCLDY    91  23   8 NW9       29.79S
$$

AZZ503-504-507>509-180100-
SOUTHEAST ARIZONA

CITY           SKY/WX    TMP DP  RH WIND       PRES   REMARKS
TUCSON         SUNNY     89  14   6 W6        29.87F
6HR MIN TEMP:  81; 6HR MAX TEMP:  91;

DAVIS-MONTHAN  MOSUNNY   88  17   7 W6        29.86S
6HR MIN TEMP:  80; 6HR MAX TEMP:  88; 6HR PCP: TRACE;

RYAN FIELD       N/A     90  21   8 NW6       29.85F
NOGALES        SUNNY     85  19   9 SW14      29.93F
6HR MIN TEMP:  77; 6HR MAX TEMP:  86;

SIERRA VISTA   PTSUNNY   81  10   7 CALM      29.99F
SAFFORD        SUNNY     86  13   6 VRB5      29.88F
6HR MIN TEMP:  78; 6HR MAX TEMP:  88;

$$

AZZ020-021-025-026-031-180100-
SOUTHWEST ARIZONA

CITY           SKY/WX    TMP DP  RH WIND       PRES   REMARKS
YUMA           PTSUNNY   88  36  15 SE17      29.78F
6HR MIN TEMP:  84; 6HR MAX TEMP:  91;

$$

CAZ031-033-041-043-047-048-061-180100-
SOUTHERN CALIFORNIA

CITY           SKY/WX    TMP DP  RH WIND       PRES   REMARKS
DOWNTOWN L.A.  PTSUNNY   66  53  63 W6        29.85S
6HR MIN TEMP:  64; 6HR MAX TEMP:  71;

L.A. AIRPORT   CLOUDY    64  52  64 W10       29.86F
6HR MIN TEMP:  63; 6HR MAX TEMP:  69;

SAN DIEGO      PTSUNNY   64  52  64 S9        29.89F
6HR MIN TEMP:  62; 6HR MAX TEMP:  65;

BURBANK        PTSUNNY   68  52  56 S9        29.83F
6HR MIN TEMP:  64; 6HR MAX TEMP:  71;

ONTARIO        PTSUNNY   71  53  52 SW14      29.82F
6HR MIN TEMP:  64; 6HR MAX TEMP:  77;

RIVERSIDE      MOSUNNY   71  53  52 W13G20    29.82F
6HR MIN TEMP:  65; 6HR MAX TEMP:  78;

PALM SPRINGS   PTSUNNY   85  45  24 E6        29.79F
6HR MIN TEMP:  78; 6HR MAX TEMP:  86;

EL CENTRO NAS  CLOUDY    86  47  25 SE12      29.75F
6HR MIN TEMP:  78; 6HR MAX TEMP:  89;

IMPERIAL       PTSUNNY   86  42  21 SE16      29.75F
6HR MIN TEMP:  79; 6HR MAX TEMP:  88;

BLYTHE         PTSUNNY   89  29  11 S13       29.77F
6HR MIN TEMP:  84; 6HR MAX TEMP:  92;

$$

NVZ020-UTZ003-180100-
SOUTHERN NEVADA-UTAH

CITY           SKY/WX    TMP DP  RH WIND       PRES   REMARKS
LAS VEGAS      NOT AVBL
SALT LAKE CITY MOSUNNY   71  26  18 S17G23    29.87F
6HR MIN TEMP:  63; 6HR MAX TEMP:  71;

$$

NMZ009-TXZ055-180100-
NEW MEXICO-WEST TEXAS

CITY           SKY/WX    TMP DP  RH WIND       PRES   REMARKS
ALBUQUERQUE    MOSUNNY   68  22  17 S7        30.08F
6HR MIN TEMP:  60; 6HR MAX TEMP:  69;

EL PASO        SUNNY     81  18   9 NE5       30.01S
6HR MIN TEMP:  72; 6HR MAX TEMP:  82;

$$


........................KEY........................
SKY/WX - SKY CONDITION/WEATHER
TMP    - TEMPERATURE IN FAHRENHEIT
DP     - DEW POINT IN FAHRENHEIT
RH     - RELATIVE HUMIDITY IN PERCENT
WIND   - DIRECTION AND SPEED IN MILES PER HOUR (MPH)
VRB    - VARIABLE WIND DIRECTION
PRES   - MEAN SEA LEVEL PRESSURE IN INCHES OF MERCURY
         F - FALLING PRESSURE   R - RISING PRESSURE
         S - STEADY PRESSURE
VSB    - VISIBILITY IN MILES
HX     - HEAT INDEX IN FAHRENHEIT
WCI    - WIND CHILL INDEX IN FAHRENHEIT
TC     - TEMPERATURE IN CELSIUS WHICH IS ALSO KNOWN AS
         TEMPERATURE IN CENTIGRADE
AFB    - AIR FORCE BASE
         LUKE AFB IS LUKE AIR FORCE BASE
         DAVIS-MONTHAN IS DAVIS-MONTHAN AIR FORCE BASE
NAS    - NAVAL AIR STATION
         EL CENTRO NAS IS EL CENTRO NAVAL AIR STATION
N/A    - NOT AVAILABLE



USA.gov is the U.S. government's official web portal to all federal, state and local government web resources and services.